[[{"header":{"parameterUnit":"m.s-1","parameterCategory":1,"la1":30.2991,"la2":30.254,"lo1":-89.0895,"lo2":-89.0444,"dy":0.0017,"dx":0.0017,"nx":28,"ny":28,"refTime":"2025-11-26T03:00:00:Z","depth":0,"parameterNumber":2,"parameterNumberName":"U-component_of_WINDS"},"data":[0,0,0,0,0,0,0,0,0,0,0,0,0,0,0,0,0,0,0,0,0,0,0,0,0,0,0,0,0,0,0,0,0,0,0,0,0,0,0,0,0,0,0,0,0,0,0,0,0,0,0,0,0,0,0,0,0,0,0.4153,0.4153,0,0.4171,0.4171,0.4171,0.419,0.4191,0.4191,0.4191,0.4208,0.4209,0.4209,0,0,0,0,0,0,0,0,0,0,0,0,0,0.4136,0.4137,0.4153,0.4154,0.4154,0.4171,0.4171,0.4171,0.419,0.4191,0.4191,0.4191,0.4208,0.4209,0.4209,0,0,0,0,0,0,0,0,0,0,0,0,0,0.4148,0.4137,0.4153,0.4165,0.4167,0.4171,0.4171,0.4171,0.419,0.4191,0.4191,0.4192,0.4208,0.4209,0.4209,0.4202,0,0,0.421,0.421,0,0,0,0,0,0,0,0,0.4147,0.4148,0.4163,0.4165,0.4166,0.4179,0.4171,0.4182,0.419,0.4181,0.4191,0.4192,0.4198,0.4199,0.4202,0.4203,0.4204,0.421,0.421,0.421,0.421,0,0,0,0,0,0,0,0.4146,0.4148,0.416,0.4164,0.4165,0.417,0.4172,0.4173,0.4187,0.4182,0.4184,0.4185,0.4199,0.4201,0.4202,0.4204,0.421,0.421,0.421,0.421,0.4202,0.4201,0,0,0,0,0,0,0.4144,0.4147,0.416,0.4161,0.4157,0.417,0.4172,0.4174,0.4187,0.419,0.4185,0.4186,0.4201,0.4202,0.4203,0.4196,0.421,0.421,0.4211,0.4202,0.4202,0.4201,0,0,0,0,0,0,0.4143,0.4145,0.4159,0.4154,0.4156,0.417,0.4172,0.4174,0.4177,0.4189,0.4192,0.4185,0.4201,0.4203,0.4203,0.4197,0.4211,0.4211,0.4203,0.4202,0.4202,0.4183,0,0,0,0,0,0,0.4143,0.4144,0.4142,0.4154,0.4157,0.4158,0.4172,0.4174,0.4177,0.4179,0.419,0.4192,0.4202,0.4202,0.4203,0.4198,0.4211,0.4203,0.4202,0.4202,0.4184,0.4182,0.418,0,0,0,0,0,0.4142,0.4136,0.4142,0.4143,0.4154,0.4158,0.4159,0.417,0.4177,0.4175,0.4183,0.4192,0.4198,0.4202,0.4203,0.4198,0.4204,0.4203,0.4202,0.4185,0.4182,0.418,0,0,0,0,0,0,0.4122,0.4137,0.4144,0.4142,0.4148,0.4161,0.4158,0.4167,0.4172,0.4173,0.4186,0.4189,0.4187,0.4193,0.4197,0.4193,0.4202,0.4201,0.4189,0.4186,0.4184,0.4183,0.4211,0,0,0,0,0,0.4117,0.4119,0.4133,0.4129,0.4132,0.4145,0.4147,0.4155,0.4162,0.4165,0.4173,0.418,0.4184,0.4185,0.4189,0.4185,0.4188,0.4183,0.4181,0.4179,0.4178,0.4177,0.4174,0.4198,0.4198,0.4198,0,0,0.4107,0.4116,0.4116,0.4125,0.4131,0.4133,0.4147,0.4148,0.415,0.4165,0.4166,0.4172,0.4181,0.4179,0.4178,0.4183,0.4172,0.4178,0.4176,0.4176,0.4175,0.4173,0.4171,0.4198,0.4198,0.4198,0,0,0.409,0.4097,0.4095,0.4101,0.4111,0.4119,0.4119,0.4131,0.4136,0.4137,0.4149,0.4151,0.4156,0.4162,0.4166,0.4152,0.4161,0.4153,0.4142,0.414,0.4138,0.4137,0.4132,0.413,0.4152,0.4152,0.4152,0,0.4077,0.408,0.4093,0.4094,0.4097,0.4113,0.4111,0.4116,0.4126,0.4128,0.4134,0.4142,0.4148,0.4148,0.4145,0.4148,0.4148,0.4151,0.4138,0.4136,0.4135,0.4131,0.4129,0.4151,0.4151,0.4151,0.4152,0,0.4063,0.4065,0.4063,0.4073,0.4076,0.4075,0.4088,0.409,0.4099,0.4107,0.4108,0.4117,0.4123,0.4124,0.4131,0.4125,0.4128,0.4135,0.4145,0.4131,0.4127,0.4126,0.415,0.415,0.415,0.4151,0,0,0.4033,0.4051,0.4049,0.4054,0.4066,0.4068,0.4069,0.4075,0.4077,0.4084,0.4084,0.409,0.4097,0.4101,0.411,0.4109,0.4098,0.4117,0.4117,0.4113,0.4091,0.4085,0.4083,0.4104,0.4104,0.4104,0.4091,0,0.4018,0.4019,0.4031,0.403,0.4032,0.4047,0.4047,0.4055,0.4063,0.4066,0.4075,0.4078,0.4088,0.4091,0.409,0.4099,0.4094,0.41,0.4105,0.4104,0.4101,0.4081,0.4074,0.4061,0.4089,0.4089,0.4089,0,0.4,0.4006,0.4005,0.4018,0.4019,0.4019,0.4026,0.4029,0.4039,0.4044,0.405,0.406,0.4061,0.4071,0.4073,0.4078,0.408,0.4085,0.4085,0.4085,0.4095,0.408,0.4058,0.4055,0.4087,0.4087,0.4087,0,0.3978,0.3986,0.3986,0.399,0.4005,0.4005,0.4011,0.4021,0.4024,0.4031,0.4033,0.404,0.4043,0.4048,0.406,0.4066,0.4061,0.4071,0.4066,0.4065,0.4063,0.4063,0.404,0.4066,0.4066,0.4066,0.4066,0,0.3959,0.3957,0.3976,0.3976,0.3975,0.399,0.3988,0.3996,0.4005,0.4007,0.402,0.4022,0.4038,0.4041,0.405,0.4051,0.4052,0.4057,0.406,0.4056,0.4055,0.4057,0.4058,0.4065,0.4065,0.4065,0.4066,0,0.3934,0.3946,0.3948,0.3962,0.3966,0.3964,0.3977,0.3978,0.3987,0.3989,0.3991,0.4005,0.401,0.4022,0.403,0.4037,0.4035,0.4039,0.4032,0.4033,0.4027,0.4027,0.4004,0.4001,0.4029,0.4028,0.4028,0,0.3921,0.392,0.3935,0.3937,0.3943,0.3947,0.3951,0.3965,0.3968,0.3979,0.3979,0.3985,0.3991,0.3998,0.4009,0.4015,0.402,0.4012,0.4021,0.4017,0.402,0.4019,0.4019,0.4009,0.4009,0.4008,0.4008,0,0.3896,0.3903,0.3908,0.3915,0.392,0.3926,0.3933,0.3935,0.3951,0.3954,0.396,0.3964,0.3973,0.3979,0.3987,0.3993,0.4003,0.4005,0.4004,0.4,0.3995,0.3998,0.4025,0.4006,0.4006,0.4006,0.4006,0.4006,0.3876,0.3877,0.3887,0.3893,0.39,0.3907,0.3908,0.3918,0.3923,0.3931,0.394,0.3944,0.3954,0.3967,0.3973,0.3977,0.3982,0.398,0.398,0.3979,0.3977,0.3995,0.3978,0.3978,0.3978,0.3978,0.3978,0,0.3852,0.386,0.3865,0.3875,0.388,0.389,0.3898,0.3901,0.3905,0.3914,0.3919,0.3926,0.3932,0.3944,0.3951,0.3952,0.3957,0.3954,0.3953,0.3955,0.3972,0.3972,0.395,0.395,0.395,0.395,0.395,0.395,0.384,0.3841,0.3849,0.3854,0.3862,0.3867,0.3871,0.3878,0.3885,0.3892,0.3897,0.3905,0.3915,0.3924,0.393,0.3933,0.3935,0.393,0.3935,0.3951,0.3953,0.3956,0.3956,0.393,0.393,0.3917,0.3917,0.3917]},{"header":{"parameterUnit":"m.s-1","parameterCategory":1,"la1":30.2991,"la2":30.254,"lo1":-89.0895,"lo2":-89.0444,"dy":0.0017,"dx":0.0017,"nx":28,"ny":28,"refTime":"2025-11-26T03:00:00:Z","depth":0,"parameterNumber":3,"parameterNumberName":"V-component_of_WINDS"},"data":[0,0,0,0,0,0,0,0,0,0,0,0,0,0,0,0,0,0,0,0,0,0,0,0,0,0,0,0,0,0,0,0,0,0,0,0,0,0,0,0,0,0,0,0,0,0,0,0,0,0,0,0,0,0,0,0,0,0,-6.124,-6.124,0,-6.1285,-6.1286,-6.1286,-6.125,-6.1249,-6.1247,-6.1246,-6.1287,-6.1289,-6.1292,0,0,0,0,0,0,0,0,0,0,0,0,0,-6.1119,-6.1121,-6.124,-6.124,-6.1241,-6.1285,-6.1286,-6.1286,-6.125,-6.1248,-6.1247,-6.1245,-6.1286,-6.1289,-6.1292,0,0,0,0,0,0,0,0,0,0,0,0,0,-6.1168,-6.1122,-6.124,-6.1229,-6.1228,-6.1285,-6.1286,-6.1286,-6.1251,-6.1248,-6.1246,-6.1244,-6.1285,-6.1288,-6.1292,-6.1361,0,0,-6.1304,-6.1305,0,0,0,0,0,0,0,0,-6.1165,-6.1173,-6.123,-6.1229,-6.1229,-6.126,-6.1258,-6.1311,-6.1251,-6.1242,-6.1246,-6.1243,-6.1279,-6.1283,-6.1297,-6.1363,-6.1365,-6.1304,-6.1306,-6.1308,-6.1309,0,0,0,0,0,0,0,-6.1162,-6.117,-6.1258,-6.123,-6.123,-6.122,-6.1225,-6.1268,-6.1273,-6.1243,-6.124,-6.1246,-6.1278,-6.1293,-6.1297,-6.1365,-6.1304,-6.1307,-6.131,-6.1311,-6.1492,-6.1495,0,0,0,0,0,0,-6.116,-6.1168,-6.1256,-6.1259,-6.1191,-6.1224,-6.1229,-6.1252,-6.1272,-6.1273,-6.1248,-6.1244,-6.1288,-6.1293,-6.1299,-6.1382,-6.1308,-6.1311,-6.1314,-6.149,-6.1493,-6.1496,0,0,0,0,0,0,-6.1158,-6.1169,-6.1254,-6.1213,-6.1223,-6.1229,-6.1255,-6.1254,-6.1269,-6.1276,-6.1276,-6.1262,-6.1286,-6.1293,-6.1347,-6.1383,-6.1313,-6.1316,-6.1487,-6.1491,-6.1494,-6.1548,0,0,0,0,0,0,-6.1155,-6.1168,-6.1195,-6.1214,-6.1225,-6.1303,-6.1257,-6.1257,-6.1276,-6.1271,-6.129,-6.1291,-6.1285,-6.1341,-6.135,-6.1387,-6.1319,-6.1484,-6.1489,-6.1493,-6.1543,-6.1553,-6.1562,0,0,0,0,0,-6.115,-6.1206,-6.1196,-6.1207,-6.1259,-6.1305,-6.1311,-6.1305,-6.1279,-6.1306,-6.1311,-6.129,-6.1378,-6.1347,-6.1357,-6.1395,-6.1481,-6.1487,-6.1493,-6.1539,-6.1551,-6.1562,0,0,0,0,0,0,-6.1188,-6.1208,-6.1197,-6.1262,-6.1282,-6.1299,-6.1332,-6.1318,-6.1345,-6.1339,-6.1329,-6.1334,-6.139,-6.1398,-6.1363,-6.1464,-6.1425,-6.1433,-6.1457,-6.1469,-6.1478,-6.1475,-6.1323,0,0,0,0,0,-6.1205,-6.1242,-6.1256,-6.1311,-6.1323,-6.1326,-6.1345,-6.134,-6.1359,-6.1367,-6.1376,-6.1395,-6.1427,-6.1448,-6.1478,-6.1544,-6.1548,-6.1576,-6.1585,-6.1593,-6.16,-6.1637,-6.165,-6.1515,-6.1515,-6.1515,0,0,-6.1238,-6.1253,-6.1277,-6.132,-6.1335,-6.1373,-6.1333,-6.1374,-6.1402,-6.1373,-6.1425,-6.1432,-6.1453,-6.1514,-6.1541,-6.1522,-6.1638,-6.16,-6.1606,-6.1609,-6.1644,-6.1657,-6.1668,-6.1519,-6.1518,-6.1517,0,0,-6.1318,-6.1333,-6.1382,-6.1399,-6.1424,-6.1426,-6.1438,-6.1457,-6.1462,-6.1515,-6.1494,-6.1526,-6.1581,-6.1598,-6.1613,-6.1703,-6.1684,-6.1712,-6.1761,-6.1798,-6.1809,-6.1818,-6.1851,-6.1863,-6.1719,-6.1719,-6.1719,0,-6.1355,-6.1412,-6.1408,-6.1452,-6.1471,-6.145,-6.1499,-6.1515,-6.1547,-6.1561,-6.154,-6.161,-6.1622,-6.1687,-6.171,-6.1723,-6.1736,-6.171,-6.1808,-6.1817,-6.1826,-6.1857,-6.1869,-6.1723,-6.1722,-6.1722,-6.1722,0,-6.1458,-6.1498,-6.1534,-6.1569,-6.1593,-6.1639,-6.1641,-6.1665,-6.1658,-6.1663,-6.1717,-6.1731,-6.1764,-6.1779,-6.1771,-6.1844,-6.1832,-6.1809,-6.177,-6.1842,-6.1871,-6.1883,-6.1727,-6.1726,-6.1725,-6.1724,0,0,-6.156,-6.1595,-6.1609,-6.1625,-6.1653,-6.1683,-6.1728,-6.1763,-6.1785,-6.1808,-6.1846,-6.1895,-6.1875,-6.1893,-6.1887,-6.1919,-6.199,-6.1892,-6.1893,-6.1911,-6.2073,-6.209,-6.2104,-6.1979,-6.1981,-6.1983,-6.2071,0,-6.1642,-6.1724,-6.1722,-6.1797,-6.1835,-6.1817,-6.1856,-6.1877,-6.1883,-6.1915,-6.192,-6.1956,-6.1927,-6.1938,-6.1969,-6.1975,-6.2023,-6.1969,-6.2013,-6.2015,-6.2009,-6.2119,-6.2136,-6.2219,-6.2083,-6.2084,-6.2086,0,-6.1748,-6.1779,-6.1858,-6.1883,-6.1898,-6.1934,-6.1968,-6.1999,-6.2022,-6.2024,-6.2046,-6.2035,-6.2081,-6.2042,-6.2104,-6.2068,-6.2086,-6.2092,-6.2095,-6.2099,-6.2055,-6.2126,-6.2245,-6.2257,-6.2104,-6.2102,-6.2101,0,-6.1816,-6.1877,-6.1933,-6.1948,-6.1977,-6.2003,-6.2016,-6.2038,-6.206,-6.2088,-6.2103,-6.2135,-6.2153,-6.2178,-6.2177,-6.2148,-6.2241,-6.2201,-6.2243,-6.2244,-6.2263,-6.2262,-6.2387,-6.2275,-6.2275,-6.2275,-6.2274,0,-6.1907,-6.1957,-6.1965,-6.1999,-6.2055,-6.2053,-6.2107,-6.2117,-6.2137,-6.2173,-6.2158,-6.2192,-6.2188,-6.2221,-6.222,-6.2273,-6.2281,-6.2283,-6.2283,-6.2285,-6.2285,-6.2296,-6.2291,-6.2278,-6.2277,-6.2277,-6.2276,0,-6.1992,-6.1999,-6.206,-6.2084,-6.2092,-6.2132,-6.2152,-6.2184,-6.219,-6.2236,-6.2246,-6.2255,-6.2294,-6.2296,-6.2339,-6.2339,-6.2404,-6.2396,-6.2396,-6.2395,-6.2438,-6.2434,-6.2575,-6.2594,-6.2469,-6.247,-6.2471,0,-6.205,-6.2088,-6.2118,-6.2143,-6.2159,-6.2197,-6.2221,-6.222,-6.2245,-6.2277,-6.2305,-6.2344,-6.2374,-6.2438,-6.2447,-6.2481,-6.2474,-6.2521,-6.2479,-6.2481,-6.2476,-6.2473,-6.2478,-6.2529,-6.2531,-6.2532,-6.2533,0,-6.2152,-6.2155,-6.219,-6.2229,-6.2258,-6.2287,-6.2314,-6.2334,-6.2337,-6.2365,-6.2407,-6.2431,-6.2478,-6.2516,-6.255,-6.2562,-6.2548,-6.2546,-6.2558,-6.2561,-6.256,-6.2562,-6.2419,-6.2543,-6.2542,-6.2541,-6.254,-6.254,-6.2226,-6.226,-6.2288,-6.2328,-6.2349,-6.2376,-6.2409,-6.242,-6.2455,-6.2495,-6.2493,-6.2539,-6.2563,-6.2607,-6.2622,-6.2657,-6.2641,-6.2658,-6.2662,-6.2666,-6.2671,-6.2555,-6.2663,-6.2663,-6.2663,-6.2663,-6.2662,0,-6.2328,-6.2346,-6.2383,-6.2424,-6.2456,-6.2443,-6.2473,-6.25,-6.2542,-6.2566,-6.2598,-6.2646,-6.2684,-6.2698,-6.2735,-6.276,-6.2755,-6.277,-6.2768,-6.2771,-6.2683,-6.267,-6.2774,-6.2774,-6.2774,-6.2774,-6.2774,-6.2774,-6.2385,-6.2443,-6.2449,-6.2518,-6.2534,-6.2582,-6.26,-6.2624,-6.2644,-6.27,-6.2733,-6.2742,-6.2763,-6.2801,-6.2835,-6.2838,-6.2852,-6.287,-6.2871,-6.2788,-6.2777,-6.2766,-6.2754,-6.2873,-6.2873,-6.2955,-6.2956,-6.2957]}]]